Flagler County, Palm Coast, FL

6:53 PM EST on December 15, 2017 (GMT -0500)
Flagler County, Palm Coast

Weather History for KXFL - March, 2014

Change the Weather History Date:

Monday, March 10, 2014

  Actual Average (KDAB) Record (KDAB)
Temperature  
Mean Temperature 62 °F -  
Max Temperature 75 °F 73 °F 85 °F (2015)
Min Temperature 49 °F 52 °F 30 °F (1940)
Degree Days  
Heating Degree Days 3    
Growing Degree Days 12 (Base 50)    
Moisture  
Dew Point 51 °F    
Average Humidity 78    
Maximum Humidity 94    
Minimum Humidity 38    
Precipitation  
Precipitation 0.00 in - - ()
Sea Level Pressure  
Sea Level Pressure 30.07 in    
Wind  
Wind Speed 2 mph (SSW)    
Max Wind Speed 9 mph    
Max Gust Speed 20 mph    
Visibility 9 miles    
Events      
Averages and records for this station are not official NWS values.
T = Trace of Precipitation, MM = Missing Value Source: NWS Daily Summary

Daily Weather History Graph

Daily Weather History Graph

Search for Another Location

Airport or City:

Trip Planner

Search our weather history database for the weather conditions in past years. The results will help you decide how hot, cold, wet, or windy it might be!

Date:

Astronomy

Mar. 10, 2014 Rise Set
Actual Time 7:40 AM EDT 7:30 PM EDT
Civil Twilight 7:16 AM EDT 7:53 PM EDT
Nautical Twilight 6:49 AM EDT 8:21 PM EDT
Astronomical Twilight 6:21 AM EDT 8:49 PM EDT
Moon 2:30 PM EDT (3/10) 3:33 AM EDT (3/10)
Length of Visible Light 12h 37m
Length of Day
11h 49m
Waxing Gibbous, 70% of the Moon is Illuminated
Mar 10
Waxing Gibbous
Mar 16
Full
Mar 23
Last Quarter
Mar 30
New
Apr 7
First Quarter

Hourly Weather History & Observations

Time (EDT) Temp. Dew Point Humidity Pressure Visibility Wind Dir Wind Speed Gust Speed Precip Events Conditions
12:15 AM 55.8 °F 51.4 °F 85% 30.14 in 10.0 mi West 3.5 mph - N/A   Clear
12:35 AM 55.4 °F 51.1 °F 85% 30.14 in 10.0 mi Calm Calm - N/A   Clear
12:55 AM 54.9 °F 50.7 °F 86% 30.13 in 10.0 mi Calm Calm - N/A   Clear
1:15 AM 55.4 °F 50.9 °F 85% 30.13 in 10.0 mi WSW 3.5 mph - N/A   Clear
1:35 AM 55.4 °F 50.9 °F 85% 30.12 in 10.0 mi SW 3.5 mph - N/A   Clear
1:55 AM 55.6 °F 50.9 °F 84% 30.12 in 10.0 mi WSW 4.6 mph - N/A   Clear
2:15 AM 55.6 °F 51.1 °F 85% 30.11 in 10.0 mi Calm Calm - N/A   Clear
2:35 AM 55.2 °F 51.1 °F 86% 30.11 in 10.0 mi Calm Calm - N/A   Clear
2:55 AM 53.1 °F 50.2 °F 90% 30.11 in 10.0 mi Calm Calm - N/A   Clear
3:15 AM 53.8 °F 50.4 °F 88% 30.11 in 10.0 mi WNW 3.5 mph - N/A   Clear
3:35 AM 52.5 °F 49.6 °F 90% 30.11 in 10.0 mi Calm Calm - N/A   Clear
3:55 AM 51.4 °F 48.6 °F 90% 30.10 in 10.0 mi Calm Calm - N/A   Clear
4:15 AM 50.5 °F 47.5 °F 89% 30.09 in 10.0 mi Calm Calm - N/A   Clear
4:35 AM 50.0 °F 47.5 °F 91% 30.09 in 10.0 mi Calm Calm - N/A   Scattered Clouds
4:55 AM 49.6 °F 47.8 °F 94% 30.09 in 10.0 mi Calm Calm - N/A   Scattered Clouds
5:15 AM 50.2 °F 48.6 °F 94% 30.09 in 10.0 mi Calm Calm - N/A   Mostly Cloudy
5:35 AM 51.4 °F 49.5 °F 93% 30.09 in 10.0 mi SW 3.5 mph - N/A   Overcast
5:50 AM 51.8 °F 50.0 °F 94% 30.09 in 7.0 mi Calm Calm - N/A   Overcast
5:55 AM 52.2 °F 49.6 °F 91% 30.09 in 10.0 mi Calm Calm - N/A   Overcast
6:15 AM 52.9 °F 50.0 °F 90% 30.09 in 10.0 mi Calm Calm - N/A   Overcast
6:35 AM 52.9 °F 49.6 °F 89% 30.09 in 10.0 mi Calm Calm - N/A   Overcast
6:50 AM 53.6 °F 50.0 °F 88% 30.09 in 7.0 mi Calm Calm - N/A   Overcast
7:50 AM 51.8 °F 48.2 °F 88% 30.10 in 7.0 mi Calm Calm - N/A   Scattered Clouds
8:50 AM 55.4 °F 51.8 °F 88% 30.11 in 7.0 mi Calm Calm - N/A   Clear
9:50 AM 57.2 °F 51.8 °F 82% 30.12 in 7.0 mi West 3.5 mph - N/A   Clear
10:52 AM 64.4 °F 51.8 °F 64% 30.12 in 7.0 mi North 3.5 mph - N/A   Clear
11:47 AM 69.8 °F 51.8 °F 53% 30.11 in 7.0 mi Calm Calm - N/A   Clear
12:50 PM 73.4 °F 50.0 °F 44% 30.09 in 7.0 mi NNE 9.2 mph 19.6 mph N/A   Clear
1:50 PM 73.4 °F 48.2 °F 41% 30.06 in 7.0 mi NE 8.1 mph 17.3 mph N/A   Clear
2:50 PM 71.6 °F 46.4 °F 41% 30.04 in 7.0 mi ENE 6.9 mph - N/A   Clear
3:50 PM 73.4 °F 48.2 °F 41% 30.01 in 7.0 mi SE 5.8 mph - N/A   Clear
4:50 PM 75.2 °F 48.2 °F 38% 29.98 in 7.0 mi East 4.6 mph - N/A   Clear
5:50 PM 71.6 °F 48.2 °F 43% 29.97 in 7.0 mi East 6.9 mph - N/A   Clear
6:50 PM 69.8 °F 48.2 °F 46% 29.98 in 7.0 mi East 5.8 mph - N/A   Clear
8:15 PM 61.9 °F 54.5 °F 77% 29.99 in 10.0 mi Calm Calm - N/A   Clear
8:35 PM 61.5 °F 55.4 °F 80% 29.99 in 10.0 mi South 3.5 mph - N/A   Clear
8:55 PM 61.2 °F 55.8 °F 82% 30.00 in 10.0 mi Calm Calm - N/A   Clear
9:15 PM 59.7 °F 55.4 °F 86% 30.00 in 10.0 mi SSE 4.6 mph - N/A   Clear
9:35 PM 60.8 °F 54.9 °F 81% 30.00 in 10.0 mi South 3.5 mph - N/A   Clear
9:55 PM 60.6 °F 54.5 °F 80% 30.01 in 10.0 mi Calm Calm - N/A   Clear
10:15 PM 59.4 °F 54.0 °F 82% 30.01 in 10.0 mi Calm Calm - N/A   Clear
10:35 PM 58.5 °F 53.8 °F 84% 30.01 in 10.0 mi Calm Calm - N/A   Clear
10:55 PM 58.3 °F 54.5 °F 87% 30.02 in 10.0 mi Calm Calm - N/A   Clear
11:15 PM 59.2 °F 54.0 °F 83% 30.02 in 10.0 mi SW 4.6 mph - N/A   Clear
11:35 PM 58.8 °F 53.6 °F 83% 30.02 in 10.0 mi SW 4.6 mph - N/A   Clear
11:55 PM 57.6 °F 52.7 °F 84% 30.02 in 10.0 mi Calm Calm - N/A   Clear